H1 CPF 2 NER 2024 2 10 9 041 01 glonass140 H2 1903001 9140 44299 2024 2 10 0 0 0 2024 2 13 23 45 0 900 1 1 0 0 0 1 H9 10 0 60350 0.00000 0 1581081.201 -23396864.051 -10042034.580 10 0 60350 900.00000 0 1710356.159 -21985675.067 -12819200.140 10 0 60350 1800.00000 0 2019212.223 -20270205.388 -15347329.246 10 0 60350 2700.00000 0 2539566.751 -18302052.774 -17577237.504 10 0 60350 3600.00000 0 3292862.707 -16140171.453 -19465516.189 10 0 60350 4500.00000 0 4288928.013 -13848529.403 -20975381.922 10 0 60350 5400.00000 0 5525331.846 -11493570.719 -22077398.139 10 0 60350 6300.00000 0 6987266.637 -9141588.814 -22750054.018 10 0 60350 7200.00000 0 8647962.442 -6856119.959 -22980189.324 10 0 60350 8100.00000 0 10469617.912 -4695465.791 -22763256.578 10 0 60350 9000.00000 0 12404810.282 -2710448.058 -22103415.109 10 0 60350 9900.00000 0 14398326.442 -942489.130 -21013454.750 10 0 60350 10800.00000 0 16389339.237 577901.877 -19514550.284 10 0 60350 11700.00000 0 18313838.380 1832174.564 -17635851.012 10 0 60350 12600.00000 0 20107214.307 2814271.212 -15413913.149 10 0 60350 13500.00000 0 21706886.559 3530627.795 -12891985.925 10 0 60350 14400.00000 0 23054866.143 3999643.167 -10119165.322 10 0 60350 15300.00000 0 24100143.841 4250640.115 -7149432.189 10 0 60350 16200.00000 0 24800803.685 4322363.630 -4040593.977 10 0 60350 17100.00000 0 25125772.397 4261081.417 -853151.380 10 0 60350 18000.00000 0 25056130.984 4118368.598 2350887.125 10 0 60350 18900.00000 0 24585933.375 3948671.906 5509218.862 10 0 60350 19800.00000 0 23722497.929 3806757.911 8560464.129 10 0 60350 20700.00000 0 22486160.072 3745154.490 11445362.511 10 0 60350 21600.00000 0 20909497.138 3811694.716 14107924.567 10 0 60350 22500.00000 0 19036058.675 4047267.644 16496516.350 10 0 60350 23400.00000 0 16918656.140 4483871.308 18564855.837 10 0 60350 24300.00000 0 14617284.083 5143050.151 20272902.494 10 0 60350 25200.00000 0 12196759.923 6034782.639 21587623.577 10 0 60350 26100.00000 0 9724180.704 7156865.729 22483623.354 10 0 60350 27000.00000 0 7266302.265 8494821.971 22943624.245 10 0 60350 27900.00000 0 4886948.982 10022333.269 22958791.708 10 0 60350 28800.00000 0 2644560.562 11702183.469 22528897.542 10 0 60350 29700.00000 0 589976.301 13487670.972 21662319.196 10 0 60350 30600.00000 0 -1235452.774 15324433.210 20375875.479 10 0 60350 31500.00000 0 -2801347.094 17152607.836 18694501.877 10 0 60350 32400.00000 0 -4089316.982 18909241.547 16650771.478 10 0 60350 33300.00000 0 -5093475.394 20530847.151 14284270.120 10 0 60350 34200.00000 0 -5820424.780 21956003.061 11640837.114 10 0 60350 35100.00000 0 -6288719.599 23127887.412 8771685.307 10 0 60350 36000.00000 0 -6527827.714 23996641.341 5732416.606 10 0 60350 36900.00000 0 -6576634.728 24521462.664 2581951.302 10 0 60350 37800.00000 0 -6481554.465 24672342.077 -618608.717 10 0 60350 38700.00000 0 -6294325.385 24431368.581 -3807161.234 10 0 60350 39600.00000 0 -6069586.074 23793548.599 -6921806.678 10 0 60350 40500.00000 0 -5862332.419 22767103.430 -9902049.479 10 0 60350 41400.00000 0 -5725364.269 21373231.406 -12689974.302 10 0 60350 42300.00000 0 -5706830.045 19645343.588 -15231374.006 10 0 60350 43200.00000 0 -5847973.798 17627803.872 -17476807.091 10 0 60350 44100.00000 0 -6181180.832 15374225.204 -19382563.761 10 0 60350 45000.00000 0 -6728405.553 12945392.300 -20911521.429 10 0 60350 45900.00000 0 -7500049.146 10406896.958 -22033872.767 10 0 60350 46800.00000 0 -8494335.825 7826584.079 -22727711.846 10 0 60350 47700.00000 0 -9697215.352 5271914.607 -22979466.637 10 0 60350 48600.00000 0 -11082797.399 2807354.994 -22784169.188 10 0 60350 49500.00000 0 -12614300.814 491901.765 -22145557.846 10 0 60350 50400.00000 0 -14245479.078 -1623155.805 -21076009.164 10 0 60350 51300.00000 0 -15922462.993 -3496141.934 -19596300.420 10 0 60350 52200.00000 0 -17585943.842 -5096490.316 -17735206.973 10 0 60350 53100.00000 0 -19173605.612 -6405767.939 -15528942.016 10 0 60350 54000.00000 0 -20622704.087 -7418184.674 -13020449.442 10 0 60350 54900.00000 0 -21872684.104 -8140568.393 -10258563.603 10 0 60350 55800.00000 0 -22867724.438 -8591807.905 -7297052.590 10 0 60350 56700.00000 0 -23559102.620 -8801788.725 -4193564.148 10 0 60350 57600.00000 0 -23907279.578 -8809868.182 -1008495.424 10 0 60350 58500.00000 0 -23883615.834 -8662955.971 2196190.522 10 0 60350 59400.00000 0 -23471646.693 -8413283.004 5358177.483 10 0 60350 60300.00000 0 -22667862.670 -8115954.477 8416013.650 10 0 60350 61200.00000 0 -21481962.488 -7826392.053 11310309.444 10 0 60350 62100.00000 0 -19936568.376 -7597774.417 13984891.825 10 0 60350 63000.00000 0 -18066416.073 -7478585.126 16387892.490 10 0 60350 63900.00000 0 -15917054.023 -7510371.726 18472748.935 10 0 60350 64800.00000 0 -13543106.560 -7725810.752 20199099.524 10 0 60350 65700.00000 0 -11006173.858 -8147159.969 21533556.046 10 0 60350 66600.00000 0 -8372456.113 -8785162.673 22450339.830 10 0 60350 67500.00000 0 -5710200.444 -9638449.754 22931770.277 10 0 60350 68400.00000 0 -3087075.838 -10693464.417 22968597.507 10 0 60350 69300.00000 0 -567584.041 -11924912.624 22560173.639 10 0 60350 70200.00000 0 1789387.528 -13296720.654 21714460.170 10 0 60350 71100.00000 0 3932770.947 -14763460.222 20447871.654 10 0 60350 72000.00000 0 5821191.103 -16272182.249 18784958.800 10 0 60350 72900.00000 0 7424431.002 -17764583.567 16757936.787 10 0 60350 73800.00000 0 8724429.656 -19179416.919 14406067.320 10 0 60350 74700.00000 0 9715772.269 -20455044.383 11774905.621 10 0 60350 75600.00000 0 10405653.370 -21532028.150 8915426.004 10 0 60350 76500.00000 0 10813315.275 -22355650.672 5883042.069 10 0 60350 77400.00000 0 10968985.973 -22878258.792 2736539.729 10 0 60350 78300.00000 0 10912361.462 -23061333.376 -463056.901 10 0 60350 79200.00000 0 10690696.613 -22877197.115 -3653665.197 10 0 60350 80100.00000 0 10356585.195 -22310287.959 -6773346.559 10 0 60350 81000.00000 0 9965522.872 -21357943.619 -9761508.473 10 0 60350 81900.00000 0 9573356.331 -20030662.910 -12560082.591 10 0 60350 82800.00000 0 9233726.614 -18351831.571 -15114655.633 10 0 60350 83700.00000 0 8995615.210 -16356922.644 -17375530.810 10 0 60350 84600.00000 0 8901097.169 -14092203.510 -19298698.816 10 0 60350 85500.00000 0 8983396.985 -11613002.496 -20846699.127 10 0 60351 0.00000 0 9265330.173 -8981606.614 -21989354.505 10 0 60351 900.00000 0 9758197.551 -6264875.908 -22704364.678 10 0 60351 1800.00000 0 10461179.535 -3531676.738 -22977745.884 10 0 60351 2700.00000 0 11361257.600 -850235.792 -22804109.511 10 0 60351 3600.00000 0 12433667.027 1714471.891 -22186772.396 10 0 60351 4500.00000 0 13642862.933 4103193.732 -21137696.977 10 0 60351 5400.00000 0 14943959.773 6264626.374 -19677261.910 10 0 60351 6300.00000 0 16284584.294 8157305.900 -17833867.243 10 0 60351 7200.00000 0 17607064.252 9751083.026 -15643381.525 10 0 60351 8100.00000 0 18850860.749 11028122.275 -13148441.430 10 0 60351 9000.00000 0 19955141.480 11983384.188 -10397617.543 10 0 60351 9900.00000 0 20861385.956 12624571.447 -7444462.810 10 0 60351 10800.00000 0 21515912.226 12971542.605 -4346462.651 10 0 60351 11700.00000 0 21872217.865 13055219.663 -1163907.884 10 0 60351 12600.00000 0 21893035.816 12916037.288 2041286.721 10 0 60351 13500.00000 0 21552017.865 12602000.886 5206794.311 10 0 60351 14400.00000 0 20834974.438 12166437.251 8271093.773 10 0 60351 15300.00000 0 19740618.342 11665534.366 11174669.002 10 0 60351 16200.00000 0 18280781.225 11155775.556 13861165.787 10 0 60351 17100.00000 0 16480093.846 10691377.265 16278483.635 10 0 60351 18000.00000 0 14375143.840 10321839.146 18379781.453 10 0 60351 18900.00000 0 12013146.460 10089709.872 20124378.095 10 0 60351 19800.00000 0 9450183.930 10028662.597 21478531.160 10 0 60351 20700.00000 0 6749086.716 10161960.598 22416079.979 10 0 60351 21600.00000 0 3977044.497 10501376.976 22918941.504 10 0 60351 22500.00000 0 1203045.363 11046613.219 22977450.678 10 0 60351 23400.00000 0 -1504751.458 11785240.524 22590539.667 10 0 60351 24300.00000 0 -4081601.717 12693166.156 21765753.258 10 0 60351 25200.00000 0 -6468615.387 13735605.322 20519100.530 10 0 60351 26100.00000 0 -8614949.453 14868518.227 18874745.728 10 0 60351 27000.00000 0 -10479664.853 16040452.725 16864544.028 10 0 60351 27900.00000 0 -12033171.973 17194716.140 14527430.578 10 0 60351 28800.00000 0 -13258205.844 18271786.080 11908673.836 10 0 60351 29700.00000 0 -14150291.504 19211859.919 9059006.764 10 0 60351 30600.00000 0 -14717680.999 19957436.557 6033651.768 10 0 60351 31500.00000 0 -14980765.233 20455822.371 2891257.490 10 0 60351 32400.00000 0 -14970985.769 20661456.037 -307232.579 10 0 60351 33300.00000 0 -14729292.562 20537954.108 -3499758.179 10 0 60351 34200.00000 0 -14304212.652 20059790.573 -6624344.344 10 0 60351 35100.00000 0 -13749611.349 19213538.693 -9620304.135 10 0 60351 36000.00000 0 -13122240.433 17998621.558 -12429418.520 10 0 60351 36900.00000 0 -12479177.081 16427538.324 -14997070.164 10 0 60351 37800.00000 0 -11875261.916 14525555.006 -17273308.802 10 0 60351 38700.00000 0 -11360644.728 12329871.131 -19213827.118 10 0 60351 39600.00000 0 -10978542.026 9888295.643 -20780827.821 10 0 60351 40500.00000 0 -10763301.616 7257485.977 -21943764.762 10 0 60351 41400.00000 0 -10738856.587 4500822.624 -22679943.402 10 0 60351 42300.00000 0 -10917634.650 1686006.869 -22974968.629 10 0 60351 43200.00000 0 -11299969.591 -1117518.968 -22823030.935 10 0 60351 44100.00000 0 -11874040.426 -3841221.935 -22227025.038 10 0 60351 45000.00000 0 -12616341.525 -6420089.509 -21198498.245 10 0 60351 45900.00000 0 -13492664.488 -8795092.883 -19757429.191 10 0 60351 46800.00000 0 -14459550.817 -10915400.139 -17931840.835 10 0 60351 47700.00000 0 -15466154.329 -12740247.277 -15757254.979 10 0 60351 48600.00000 0 -16456434.738 -14240389.406 -13275998.718 10 0 60351 49500.00000 0 -17371589.533 -15399072.090 -10536376.319 10 0 60351 50400.00000 0 -18152620.997 -16212482.966 -7591722.915 10 0 60351 51300.00000 0 -18742929.248 -16689665.883 -4499358.888 10 0 60351 52200.00000 0 -19090821.009 -16851902.534 -1319465.994 10 0 60351 53100.00000 0 -19151827.296 -16731589.238 1886092.002 10 0 60351 54000.00000 0 -18890731.450 -16370657.895 5054980.284 10 0 60351 54900.00000 0 -18283221.309 -15818609.477 8125611.065 10 0 60351 55800.00000 0 -17317095.452 -15130244.652 11038344.262 10 0 60351 56700.00000 0 -15992972.502 -14363188.710 13736646.908 10 0 60351 57600.00000 0 -14324473.605 -13575316.302 16168188.538 10 0 60351 58500.00000 0 -12337870.484 -12822185.228 18285851.407 10 0 60351 59400.00000 0 -10071213.876 -12154587.654 20048636.454 10 0 60351 60300.00000 0 -7572978.753 -11616321.650 21422448.284 10 0 60351 61200.00000 0 -4900282.682 -11242276.224 22380744.970 10 0 60351 62100.00000 0 -2116751.091 -11056909.548 22905041.308 10 0 60351 63000.00000 0 709882.573 -11073183.368 22985256.914 10 0 60351 63900.00000 0 3510343.100 -11291997.437 22619903.431 10 0 60351 64800.00000 0 6216441.032 -11702147.012 21816107.999 10 0 60351 65700.00000 0 8763653.950 -12280804.749 20589472.954 10 0 60351 66600.00000 0 11093556.016 -12994506.681 18963774.516 10 0 60351 67500.00000 0 13155996.578 -13800601.115 16970506.038 10 0 60351 68400.00000 0 14910938.819 -14649100.130 14648274.021 10 0 60351 69300.00000 0 16329883.304 -15484856.556 12042057.827 10 0 60351 70200.00000 0 17396818.213 -16249975.681 9202346.491 10 0 60351 71100.00000 0 18108657.465 -16886360.892 6184168.422 10 0 60351 72000.00000 0 18475148.998 -17338286.578 3046032.025 10 0 60351 72900.00000 0 18518257.425 -17554890.102 -151202.901 10 0 60351 73800.00000 0 18271047.184 -17492477.711 -3345501.541 10 0 60351 74700.00000 0 17776113.212 -17116546.601 -6474855.555 10 0 60351 75600.00000 0 17083625.188 -16403437.066 -9478486.402 10 0 60351 76500.00000 0 16249067.777 -15341543.835 -12298026.944 10 0 60351 77400.00000 0 15330772.162 -13932034.106 -14878658.095 10 0 60351 78300.00000 0 14387343.091 -12189040.382 -17170178.075 10 0 60351 79200.00000 0 13475090.127 -10139318.178 -19127983.167 10 0 60351 80100.00000 0 12645571.729 -7821381.193 -20713940.538 10 0 60351 81000.00000 0 11943356.043 -5284148.426 -21897135.854 10 0 60351 81900.00000 0 11404093.182 -2585158.262 -22654480.891 10 0 60351 82800.00000 0 11052980.710 211577.231 -22971168.999 10 0 60351 83700.00000 0 10903687.400 3037989.373 -22840969.287 10 0 60351 84600.00000 0 10957781.060 5824541.442 -22266353.455 10 0 60351 85500.00000 0 11204684.928 8502881.458 -21258452.424 10 0 60352 0.00000 0 11622164.708 11008448.891 -19836843.367 10 0 60352 900.00000 0 12177326.141 13282928.236 -18029170.035 10 0 60352 1800.00000 0 12828080.403 15276444.040 -15870605.474 10 0 60352 2700.00000 0 13525016.037 16949410.452 -13403164.849 10 0 60352 3600.00000 0 14213597.403 18273954.989 -10674883.549 10 0 60352 4500.00000 0 14836596.315 19234858.843 -7738876.156 10 0 60352 5400.00000 0 15336653.237 19829974.917 -4652295.131 10 0 60352 6300.00000 0 15658858.829 20070107.154 -1475210.212 10 0 60352 7200.00000 0 15753245.742 19978357.564 1730568.805 10 0 60352 8100.00000 0 15577084.398 19588970.023 4902702.018 10 0 60352 9000.00000 0 15096884.965 18945721.171 7979537.677 10 0 60352 9900.00000 0 14290020.415 18099927.859 10901314.200 10 0 60352 10800.00000 0 13145901.771 17108156.608 13611322.057 10 0 60352 11700.00000 0 11666655.812 16029732.779 16057002.705 10 0 60352 12600.00000 0 9867276.626 14924155.198 18190963.336 10 0 60352 13500.00000 0 7775244.568 13848525.388 19971888.254 10 0 60352 14400.00000 0 5429628.427 12855099.450 21365330.038 10 0 60352 15300.00000 0 2879708.072 11989064.893 22344366.173 10 0 60352 16200.00000 0 183174.528 11286634.898 22890109.626 10 0 60352 17100.00000 0 -2596018.349 10773538.831 22992064.655 10 0 60352 18000.00000 0 -5390062.275 10463971.140 22648321.959 10 0 60352 18900.00000 0 -8129864.277 10360041.563 21865590.192 10 0 60352 19800.00000 0 -10747672.587 10451748.780 20659063.654 10 0 60352 20700.00000 0 -13179651.254 10717477.962 19052128.821 10 0 60352 21600.00000 0 -15368298.163 11125001.070 17075915.077 10 0 60352 22500.00000 0 -17264607.507 11632937.925 14768697.791 10 0 60352 23400.00000 0 -18829888.036 12192616.945 12175164.468 10 0 60352 24300.00000 0 -20037162.438 12750257.793 9345557.274 10 0 60352 25200.00000 0 -20872090.260 13249384.540 6334707.610 10 0 60352 26100.00000 0 -21333376.329 13633368.149 3200980.625 10 0 60352 27000.00000 0 -21432647.848 13847991.280 5149.464 10 0 60352 27900.00000 0 -21193805.446 13843927.227 -3190779.363 10 0 60352 28800.00000 0 -20651875.345 13579027.941 -6324766.887 10 0 60352 29700.00000 0 -19851410.824 13020323.880 -9335945.556 10 0 60352 30600.00000 0 -18844510.090 12145650.184 -12165802.542 10 0 60352 31500.00000 0 -17688533.896 10944829.211 -14759319.182 10 0 60352 32400.00000 0 -16443619.010 9420357.978 -17066044.077 10 0 60352 33300.00000 0 -15170092.229 7587569.715 -19041078.661 10 0 60352 34200.00000 0 -13925893.966 5474260.876 -20645955.718 10 0 60352 35100.00000 0 -12764119.981 3119797.327 -21849393.471 10 0 60352 36000.00000 0 -11730784.927 573735.330 -22627910.314 10 0 60352 36900.00000 0 -10862902.007 -2105986.597 -22966287.925 10 0 60352 37800.00000 0 -10186959.734 -4855210.825 -22857873.455 10 0 60352 38700.00000 0 -9717860.034 -7605989.627 -22304714.592 10 0 60352 39600.00000 0 -9458362.493 -10289179.545 -21317524.480 10 0 60352 40500.00000 0 -9399058.133 -12837093.536 -19915476.765 10 0 60352 41400.00000 0 -9518873.713 -15186100.634 -18125834.411 10 0 60352 42300.00000 0 -9786085.022 -17279064.827 -15983419.124 10 0 60352 43200.00000 0 -10159795.950 -19067521.432 -13529931.586 10 0 60352 44100.00000 0 -10591820.274 -20513500.163 -10813135.650 10 0 60352 45000.00000 0 -11028885.809 -21590918.818 -7885922.647 10 0 60352 45900.00000 0 -11415066.745 -22286489.695 -4805274.461 10 0 60352 46800.00000 0 -11694340.222 -22600101.431 -1631146.221 10 0 60352 47700.00000 0 -11813157.839 -22544661.246 1574708.734 10 0 60352 48600.00000 0 -11722922.228 -22145405.505 4749947.803 10 0 60352 49500.00000 0 -11382262.990 -21438709.050 7832857.565 10 0 60352 50400.00000 0 -10759015.013 -20470444.966 10763557.125 10 0 60352 51300.00000 0 -9831815.060 -19293965.274 13485162.453 10 0 60352 52200.00000 0 -8591248.902 -17967788.813 15944888.826 10 0 60352 53100.00000 0 -7040500.486 -16553094.495 18095070.067 10 0 60352 54000.00000 0 -5195475.660 -15111125.825 19894075.278 10 0 60352 54900.00000 0 -3084395.095 -13700615.695 21307106.140 10 0 60352 55800.00000 0 -746873.168 -12375339.099 22306860.338 10 0 60352 56700.00000 0 1767479.237 -11181895.463 22874049.449 10 0 60352 57600.00000 0 4400870.431 -10157812.342 22997762.454 10 0 60352 58500.00000 0 7089487.555 -9330048.463 22675668.846 10 0 60352 59400.00000 0 9765911.534 -8713957.397 21914058.207 10 0 60352 60300.00000 0 12361688.458 -8312753.891 20727715.920 10 0 60352 61200.00000 0 14809952.074 -8117504.125 19139637.537 10 0 60352 62100.00000 0 17047989.976 -8107639.500 17180587.023 10 0 60352 63000.00000 0 19019648.288 -8251971.932 14888506.866 10 0 60352 63900.00000 0 20677476.028 -8510167.885 12307790.664 10 0 60352 64800.00000 0 21984520.849 -8834619.263 9488431.359 10 0 60352 65700.00000 0 22915701.994 -9172632.681 6485060.669 10 0 60352 66600.00000 0 23458703.524 -9468845.165 3355897.538 10 0 60352 67500.00000 0 23614350.657 -9667764.584 161625.298 10 0 60352 68400.00000 0 23396453.377 -9716327.626 -3035781.131 10 0 60352 69300.00000 0 22831123.714 -9566367.026 -6174255.437 10 0 60352 70200.00000 0 21955595.065 -9176883.279 -9192844.231 10 0 60352 71100.00000 0 20816592.861 -8516023.968 -12032891.945 10 0 60352 72000.00000 0 19468324.807 -7562685.937 -14639182.987 10 0 60352 72900.00000 0 17970174.974 -6307671.201 -16961018.619 10 0 60352 73800.00000 0 16384198.515 -4754346.122 -18953207.322 10 0 60352 74700.00000 0 14772522.275 -2918774.245 -20576948.974 10 0 60352 75600.00000 0 13194760.501 -829315.233 -21800595.409 10 0 60352 76500.00000 0 11705554.214 1474295.206 -22600272.261 10 0 60352 77400.00000 0 10352337.655 3942347.654 -22960349.711 10 0 60352 78300.00000 0 9173425.598 6516986.524 -22873752.687 10 0 60352 79200.00000 0 8196501.805 9134387.786 -22342104.159 10 0 60352 80100.00000 0 7437572.043 11727196.959 -21375698.359 10 0 60352 81000.00000 0 6900425.423 14227126.342 -19993304.042 10 0 60352 81900.00000 0 6576626.376 16567603.495 -18221801.237 10 0 60352 82800.00000 0 6446037.109 18686360.572 -16095658.212 10 0 60352 83700.00000 0 6477847.838 20527856.326 -13656258.658 10 0 60352 84600.00000 0 6632070.495 22045429.486 -10951092.128 10 0 60352 85500.00000 0 6861431.801 23203093.319 -8032823.734 10 0 60353 0.00000 0 7113584.506 23976896.282 -4958261.931 10 0 60353 900.00000 0 7333542.152 24355792.375 -1787243.479 10 0 60353 1800.00000 0 7466232.672 24341984.344 1418537.672 10 0 60353 2700.00000 0 7459061.973 23950727.593 4596739.329 10 0 60353 3600.00000 0 7264377.544 23209603.108 7685589.313 10 0 60353 4500.00000 0 6841727.066 22157291.733 10625090.068 10 0 60353 5400.00000 0 6159815.828 20841902.642 13358185.406 10 0 60353 6300.00000 0 5198079.804 19318927.467 15831866.435 10 0 60353 7200.00000 0 3947807.762 17648907.059 17998195.271 10 0 60353 8100.00000 0 2412764.990 15894909.443 19815227.150 10 0 60353 9000.00000 0 609292.245 14119924.891 21247813.873 10 0 60353 9900.00000 0 -1434124.448 12384286.974 22268274.019 10 0 60353 10800.00000 0 -3677795.547 10743226.760 22856918.143 10 0 60353 11700.00000 0 -6072242.601 9244661.257 23002419.974 10 0 60353 12600.00000 0 -8560027.588 7927307.132 22702027.443 10 0 60353 13500.00000 0 -11077921.919 6819196.909 21961610.298 10 0 60353 14400.00000 0 -13559326.214 5936658.060 20795543.804 10 0 60353 15300.00000 0 -15936841.630 5283796.217 19226430.935 10 0 60353 16200.00000 0 -18144887.290 4852502.898 17284668.145 10 0 60353 17100.00000 0 -20122256.369 4622986.495 15007862.547 10 0 60353 18000.00000 0 -21814505.585 4564803.697 12440111.000 10 0 60353 18900.00000 0 -23176079.536 4638347.715 9631154.137 10 0 60353 19800.00000 0 -24172081.923 4796730.687 6635420.767 10 0 60353 20700.00000 0 -24779619.991 4987981.041 3510980.337 10 0 60353 21600.00000 0 -24988666.039 5157463.304 318423.104 10 0 60353 22500.00000 0 -24802399.714 5250418.187 -2880310.780 10 0 60353 23400.00000 0 -24237016.370 5214515.517 -6023130.704 10 0 60353 24300.00000 0 -23321009.040 5002311.710 -9049000.322 10 0 60353 25200.00000 0 -22093953.634 4573507.207 -11899124.002 10 0 60353 26100.00000 0 -20604847.885 3896907.475 -14518091.646 10 0 60353 27000.00000 0 -18910073.339 2952003.482 -16854959.298 10 0 60353 27900.00000 0 -17071065.589 1730103.376 -18864244.203 10 0 60353 28800.00000 0 -15151790.288 234965.961 -20506814.609 10 0 60353 29700.00000 0 -13216130.595 -1517092.603 -21750656.721 10 0 60353 30600.00000 0 -11325295.489 -3497625.271 -22571503.634 10 0 60353 31500.00000 0 -9535357.479 -5666997.707 -22953313.700 10 0 60353 32400.00000 0 -7895022.768 -7975811.219 -22888588.768 10 0 60353 33300.00000 0 -6443727.165 -10366746.945 -22378525.749 10 0 60353 34200.00000 0 -5210137.356 -12776755.369 -21432998.181 10 0 60353 35100.00000 0 -4211120.022 -15139500.520 -20070367.775 10 0 60353 36000.00000 0 -3451221.612 -17387957.238 -18317129.170 10 0 60353 36900.00000 0 -2922679.976 -19457053.163 -16207394.523 10 0 60353 37800.00000 0 -2605966.560 -21286244.919 -13782227.721 10 0 60353 38700.00000 0 -2470835.263 -22821920.539 -11088841.154 10 0 60353 39600.00000 0 -2477832.583 -24019527.218 -8179670.871 10 0 60353 40500.00000 0 -2580203.886 -24845335.054 -5111348.594 10 0 60353 41400.00000 0 -2726113.836 -25277762.738 -1943591.219 10 0 60353 42300.00000 0 -2861085.533 -25308209.752 1261969.675 10 0 60353 43200.00000 0 -2930553.750 -24941360.630 4442994.572 10 0 60353 44100.00000 0 -2882422.861 -24194949.261 7537654.641 10 0 60353 45000.00000 0 -2669520.138 -23098994.160 10485837.612 10 0 60353 45900.00000 0 -2251839.784 -21694537.970 13230316.925 10 0 60353 46800.00000 0 -1598482.287 -20031945.258 15717861.129 10 0 60353 47700.00000 0 -689206.898 -18168831.000 17900262.043 10 0 60353 48600.00000 0 484468.383 -16167707.333 19735262.220 10 0 60353 49500.00000 0 1918665.698 -14093447.372 21187364.502 10 0 60353 50400.00000 0 3597070.460 -12010672.074 22228509.002 10 0 60353 51300.00000 0 5491382.168 -9981168.697 22838605.606 10 0 60353 52200.00000 0 7562274.542 -8061447.553 23005912.850 10 0 60353 53100.00000 0 9760825.513 -6300537.613 22727256.890 10 0 60353 54000.00000 0 12030358.400 -4738111.232 22008087.149 10 0 60353 54900.00000 0 14308618.705 -3403014.489 20862368.043 10 0 60353 55800.00000 0 16530197.199 -2312262.765 19312308.997 10 0 60353 56700.00000 0 18629099.763 -1470541.984 17387937.734 10 0 60353 57600.00000 0 20541358.328 -870235.100 15126524.516 10 0 60353 58500.00000 0 22207575.268 -491971.748 12571867.719 10 0 60353 59400.00000 0 23575296.066 -305677.374 9773453.631 10 0 60353 60300.00000 0 24601111.877 -272077.396 6785505.806 10 0 60353 61200.00000 0 25252404.368 -344592.949 3665941.570 10 0 60353 62100.00000 0 25508659.844 -471548.285 475255.222 10 0 60353 63000.00000 0 25362297.293 -598596.670 -2724650.905 10 0 60353 63900.00000 0 24818975.115 -671262.180 -5871665.033 10 0 60353 64800.00000 0 23897362.968 -637489.707 -8904670.947 10 0 60353 65700.00000 0 22628387.546 -450094.839 -11764735.890 10 0 60353 66600.00000 0 21053983.157 -69009.296 -14396257.953 10 0 60353 67500.00000 0 19225398.830 536774.058 -16748050.339 10 0 60353 68400.00000 0 17201132.268 1387640.027 -18774341.107 10 0 60353 69300.00000 0 15044576.781 2492241.127 -20435668.562 10 0 60353 70200.00000 0 12821479.335 3846887.318 -21699654.623 10 0 60353 71100.00000 0 10597315.798 5435462.898 -22541640.826 10 0 60353 72000.00000 0 8434692.990 7229875.840 -22945174.321 10 0 60353 72900.00000 0 6390885.988 9191022.413 -22902334.116 10 0 60353 73800.00000 0 4515613.411 11270228.209 -22413890.892 10 0 60353 74700.00000 0 2849143.515 13411106.470 -21489296.914 10 0 60353 75600.00000 0 1420809.955 15551756.886 -20146505.824 10 0 60353 76500.00000 0 247998.870 17627213.496 -18411625.430 10 0 60353 77400.00000 0 -664350.936 19572039.449 -16318409.924 10 0 60353 78300.00000 0 -1323714.588 21322960.009 -13907601.165 10 0 60353 79200.00000 0 -1749417.031 22821423.199 -11226131.817 10 0 60353 80100.00000 0 -1971563.252 24015980.339 -8326206.035 10 0 60353 81000.00000 0 -2029509.385 24864386.171 -5264276.043 10 0 60353 81900.00000 0 -1969940.849 25335330.064 -2099935.133 10 0 60353 82800.00000 0 -1844640.373 25409725.407 1105250.446 10 0 60353 83700.00000 0 -1708041.912 25081503.103 4288947.053 10 0 60353 84600.00000 0 -1614675.438 24357876.213 7389272.273 10 0 60353 85500.00000 0 -1616612.015 23259065.239 10346002.006 99